Printer-friendly version

IAU Minor Planet Center

Minor Planet Center

MPEC 2006-B32 : 2006 BQ6

The following Minor Planet Electronic Circular may be linked-to from your own Web pages, but must not otherwise be redistributed electronically.


Read MPEC 2006-B31 Read MPEC 2006-B33


M.P.E.C. 2006-B32                                Issued 2006 Jan. 24, 03:16 UT

     The Minor Planet Electronic Circulars contain information on unusual
         minor planets and routine data on comets.  They are published
   on behalf of Commission 20 of the International Astronomical Union by the
          Minor Planet Center, Smithsonian Astrophysical Observatory,
                          Cambridge, MA 02138, U.S.A.

                  Supported in part by the Brinson Foundation
                  Supported in part by the TABASGO Foundation
             Prepared using the Tamkin Foundation Computer Network

                              MPC@CFA.HARVARD.EDU
          URL http://cfa-www.harvard.edu/iau/mpc.html  ISSN 1523-6714

                                   2006 BQ6

Observations:
     K06B06Q* C2006 01 22.43948 09 13 10.34 +16 16 28.9          20.1 V EB032G96
     K06B06Q  C2006 01 22.44486 09 13 09.66 +16 16 27.0          20.1 V EB032G96
     K06B06Q  C2006 01 22.45021 09 13 09.01 +16 16 25.3          20.1 V EB032G96
     K06B06Q  C2006 01 22.45559 09 13 08.32 +16 16 23.1          20.4 V EB032G96
     K06B06Q  C2006 01 22.47978 09 13 05.26 +16 16 13.8          19.8 V EB032G96
     K06B06Q  C2006 01 22.48444 09 13 04.67 +16 16 11.8          19.8 V EB032G96
     K06B06Q  C2006 01 22.48910 09 13 04.11 +16 16 09.9          19.8 V EB032G96
     K06B06Q  C2006 01 22.49383 09 13 03.52 +16 16 08.2          19.6 V EB032G96
     K06B06Q  C2006 01 22.50079 09 13 02.64 +16 16 05.5          19.8 V EB032G96
     K06B06Q  C2006 01 22.50186 09 13 02.49 +16 16 05.1          19.7 V EB032G96
     K06B06Q  C2006 01 22.50294 09 13 02.35 +16 16 04.5          20.0 V EB032G96
     K06B06Q  C2006 01 22.50402 09 13 02.28 +16 16 03.9          19.8 V EB032G96
     K06B06Q  C2006 01 23.34294 09 11 19.93 +16 10 52.8          19.8 V EB032G96
     K06B06Q  C2006 01 23.35064 09 11 18.96 +16 10 49.9          19.6 V EB032G96
     K06B06Q  C2006 01 23.35825 09 11 17.95 +16 10 47.1          20.0 V EB032G96
     K06B06Q  C2006 01 23.36593 09 11 16.94 +16 10 44.1          20.4 V EB032G96
     K06B06Q  C2006 01 23.41488 09 11 10.60 +16 10 25.4          19.8 V EB032G96
     K06B06Q  C2006 01 23.42340 09 11 09.52 +16 10 22.1          19.7 V EB032G96
     K06B06Q  C2006 01 23.43189 09 11 08.41 +16 10 18.7          19.8 V EB032G96
     K06B06Q  C2006 01 23.44045 09 11 07.29 +16 10 15.5          19.9 V EB032G96
     K06B06Q  C2006 01 23.92966 09 10 06.49 +16 07 06.4                 EB032A44
     K06B06Q  C2006 01 23.95095 09 10 03.69 +16 06 58.7          20.0 V EB032A44
     K06B06Q  C2006 01 23.96806 09 10 01.44 +16 06 52.2          20.0 V EB032A44
     K06B06Q  C2006 01 23.97825 09 10 00.18 +16 06 48.3                 EB032246
     K06B06Q  C2006 01 23.97896 09 10 00.06 +16 06 47.8                 EB032246
     K06B06Q  C2006 01 23.97998 09 09 59.96 +16 06 47.2                 EB032246
     K06B06Q  C2006 01 23.98279 09 09 59.53 +16 06 46.5          20.0 V EB032A44
     K06B06Q  C2006 01 23.98448 09 09 59.27 +16 06 46.1                 EB032246

Observer details:
246 Klet Observatory-KLENOT.  Observers M. Tichy, J. Ticha.  Measurer M. Tichy.
    1.06-m KLENOT Telescope + CCD.
A44 Altschwendt.  Observer W. Ries.  0.30-m f/6 reflector + CCD.
G96 Mt. Lemmon Survey.  Observer E. C. Beshore.  Measurers E. C. Beshore,
    E. J. Christensen, G. J. Garradd, A. D. Grauer, R. E. Hill, R. A. Kowalski,
    S. M. Larson, R. H. McNaught.  1.5-m reflector + CCD.

Orbital elements:
2006 BQ6                                            PHA, Earth MOID = 0.0024 AU
Epoch 2006 Mar. 6.0 TT = JDT 2453800.5                  MPC
M 299.79375              (2000.0)            P               Q
n   0.57266480     Peri.  304.99668     -0.28368869     +0.94430577
a   1.4361586      Node   307.65155     -0.79679954     -0.32888774
e   0.3726062      Incl.   12.15861     -0.53350840     -0.01093003
P   1.72           H   19.5           G   0.15           U   9
Residuals in seconds of arc
060122 G96  0.3+  0.1-    060122 G96  0.5-  0.2-    060123 A44  0.2-  0.2-
060122 G96  0.2+  0.0     060122 G96  0.4+  0.4-    060123 A44  0.4-  0.1+
060122 G96  0.5+  0.3+    060123 G96  0.3-  0.0     060123 A44  0.5-  0.1+
060122 G96  0.3+  0.2+    060123 G96  0.2+  0.0     060123 246  0.7+  0.1+
060122 G96  0.2-  0.2+    060123 G96  0.1-  0.1+    060123 246  0.3+  0.1-
060122 G96  0.3-  0.0     060123 G96  0.3-  0.0     060123 246  0.8+  0.3-
060122 G96  0.0   0.1-    060123 G96  0.0   0.0     060123 A44  0.2-  0.1-
060122 G96  0.0   0.0     060123 G96  0.4+  0.0     060123 246  0.6-  0.3+
060122 G96  0.2-  0.0     060123 G96  0.2+  0.1-
060122 G96  0.5-  0.0     060123 G96  0.1+  0.0

Ephemeris:
2006 BQ6                 a,e,i = 1.44, 0.37, 12                  q = 0.9010
Date    TT    R. A. (2000) Decl.     Delta      r     Elong.  Phase     V
2006 01 15    09 26.25   +16 59.4    0.662    1.611   156.0    14.4    20.4
2006 01 25    09 07.81   +16 00.4    0.585    1.564   170.1     6.2    19.8
2006 02 04    08 43.40   +14 46.8    0.532    1.515   173.5     4.2    19.4
2006 02 14    08 16.48   +13 13.8    0.502    1.464   157.4    15.0    19.7
2006 02 24    07 51.69   +11 26.2    0.494    1.411   141.6    25.8    19.9
2006 03 06    07 32.83   +09 34.1    0.501    1.355   127.2    35.6    20.1
2006 03 16    07 21.51   +07 44.2    0.516    1.299   114.8    44.0    20.3
2006 03 26    07 17.33   +05 57.9    0.532    1.241   104.3    51.1    20.5
2006 04 05    07 19.21   +04 11.7    0.544    1.184    95.5    57.3    20.6
2006 04 15    07 25.86   +02 20.4    0.548    1.127    88.1    62.8    20.7
2006 04 25    07 36.06   +00 20.0    0.542    1.073    81.8    68.1    20.7
2006 05 05    07 48.89   -01 52.9    0.525    1.023    76.5    73.5    20.7
2006 05 15    08 03.49   -04 20.3    0.495    0.978    72.0    79.2    20.7
2006 05 25    08 19.11   -07 00.8    0.455    0.942    68.0    85.4    20.7
2006 06 04    08 35.27   -09 51.7    0.404    0.916    64.5    92.1    20.6
2006 06 14    08 51.62   -12 47.4    0.344    0.903    61.4    99.0    20.5
2006 06 24    09 08.50   -15 39.8    0.280    0.903    58.6   106.1    20.5
2006 07 04    09 27.85   -18 23.9    0.213    0.916    56.3   112.6    20.3
2006 07 14    09 55.92   -20 59.7    0.145    0.941    55.3   117.4    19.8
2006 07 24    11 00.05   -23 27.5    0.0814   0.977    59.6   116.3    18.6
2006 08 03    15 07.64   -14 43.6    0.0414   1.021    98.1    79.6    15.4
2006 08 13    18 54.65   +08 17.9    0.0803   1.072   135.1    41.8    15.8
2006 08 23    19 53.21   +12 44.4    0.147    1.126   138.8    36.2    17.1
2006 09 02    20 19.47   +13 21.4    0.220    1.182   138.3    34.6    18.0
2006 09 12    20 37.43   +12 55.4    0.299    1.240   136.2    34.2    18.8
2006 09 22    20 52.93   +12 08.3    0.385    1.297   133.0    34.5    19.4
2006 10 02    21 08.10   +11 18.8    0.478    1.354   129.0    35.1    20.0
2006 10 12    21 23.63   +10 37.0    0.579    1.410   124.5    35.7    20.5
2006 10 22    21 39.71   +10 07.3    0.687    1.463   119.7    36.2    21.0
2006 11 01    21 56.41   +09 52.4    0.802    1.515   114.7    36.6    21.4
2006 11 11    22 13.66   +09 53.0    0.924    1.564   109.5    36.6    21.8
2006 11 21    22 31.36   +10 08.1    1.051    1.610   104.3    36.5    22.1

Gareth V. Williams           (C) Copyright 2006 MPC           M.P.E.C. 2006-B32

Read MPEC 2006-B31 Read MPEC 2006-B33


Our Web policy. Index to the CBAT/MPC/ICQ pages.


Valid HTML 4.01!